Regional Weather Roundup
Issued by NWS Glasgow, MT

Home | Current Version | Previous Version | Text Only | Print | Product List | Glossary On
Versions: 1 2 3 4 5 6 7 8 9 10 11 12 13 14 15 16 17 18 19 20 21 22 23 24 25 26 27 28 29 30 31 32 33 34 35 36 37 38 39 40 41 42 43 44 45 46 47 48 49 50
000
ASUS45 KGGW 171415
RWRGGW
HOURLY WEATHER ROUNDUP FOR NORTHEAST MONTANA
NATIONAL WEATHER SERVICE GLASGOW MONTANA
800 AM MDT WED SEP 17 2014

NOTE: "FAIR" INDICATES FEW OR NO CLOUDS BELOW 12,000 FEET WITH NO
SIGNIFICANT WEATHER AND/OR OBSTRUCTIONS TO VISISBILITY.

NORTHEAST MONTANA


CITY           SKY/WX    TMP DP  RH WIND       PRES   REMARKS
GLASGOW        PTSUNNY   53  41  63 E12       29.90R
PLENTYWOOD       N/A     47  36  65 S1          N/A
WOLF POINT     CLOUDY    46  39  76 E6        29.93S
JORDAN           N/A     48  47  96 CALM      29.90S
WINNETT          N/A     46  43  89 CALM        N/A
SIDNEY         PTSUNNY   46  43  87 N3        29.96S
GLENDIVE       NOT AVBL
MALTA            N/A     52  47  83 E2          N/A

FORT PECK REPORTS


CITY           SKY/WX    TMP DP  RH WIND       PRES   REMARKS
FORT PECK        N/A     57  49  74 CALM        N/A
THE PINES        N/A     60  49  66 SE1         N/A

SOUTHEAST MONTANA


CITY           SKY/WX    TMP DP  RH WIND       PRES   REMARKS
BILLINGS       MOSUNNY   61  46  57 SW14      29.94R
MILES CITY     PTSUNNY   51  47  86 N8        29.92R
BAKER          PTSUNNY   52  49  89 E8        29.96S
LIVINGSTON     MOCLDY    51  43  74 VRB5      30.02R

CENTRAL MONTANA


CITY           SKY/WX    TMP DP  RH WIND       PRES   REMARKS
HAVRE          PTCLDY    50  47  89 E5        29.88R
LEWISTOWN      PTCLDY    54  45  71 SE5       29.95S
GREAT FALLS    PTCLDY    56  46  69 S9        29.90S
CUT BANK       PTCLDY    52  42  69 NW5       29.91S
HELENA         CLEAR     49  46  90 CALM      29.98R
BUTTE          PTCLDY    40  37  89 CALM      30.07R
BOZEMAN        CLEAR     45  43  93 E3        30.02R

WESTERN MONTANA


CITY           SKY/WX    TMP DP  RH WIND       PRES   REMARKS
MISSOULA       CLEAR     48  43  82 CALM      29.96R
KALISPELL      NOT AVBL

NORTH DAKOTA


CITY           SKY/WX    TMP DP  RH WIND       PRES   REMARKS
WILLISTON      MOSUNNY   47  39  74 CALM      29.96S HAZE
DICKINSON      PTSUNNY   49  45  86 CALM      29.95S
MINOT          SUNNY     50  43  77 NE3       29.97R
BISMARCK       SUNNY     48  43  82 CALM      29.97R

SOUTHERN SASKATCHEWAN


CITY           SKY/WX    TMP DP  RH WIND       PRES   REMARKS
REGINA         CLOUDY    46  45  93 E14       29.97R
MOOSE JAW      FOG      N/A N/A N/A E8          N/A  VSB 1/8
ESTEVAN        PTSUNNY   46  43  87 E8        29.99R
SWIFT CURRENT  SUNNY     52  45  76 SE3       29.90S



USA.gov is the U.S. government's official web portal to all federal, state and local government web resources and services.